Tracking 18796 objects as of 21-September-2017
HD Live streaming from Space Station
objects crossing your sky now

ACRIMSAT

Track ACRIMSAT now!
10-day predictions
ACRIMSAT is classified as:


NORAD ID: 26033
Int'l Code: 1999-070B
Perigee: 672.9 km
Apogee: 713.7 km
Inclination: 98.0 °
Period: 98.5 minutes
Semi major axis: 7064 km
RCS: 0.514 m2 (medium)
Launch date: December 21, 1999
Source: United States (US)
Launch site: AIR FORCE WESTERN TEST RANGE (AFWTR)

Monitor total solar irradiance (TSI) with maximum precision; ascertain the extent of solar radiation variability.
aabbcc
Your satellite tracking list
Your tracking list is empty





NASA's NSSDC Master Catalog

Two Line Element Set (TLE):
1 26033U 99070B   17263.53635754 +.00000033 +00000-0 +15582-4 0  9997
2 26033 097.9508 041.3566 0028909 046.8798 313.4815 14.62182669946165
Source of the keplerian elements: AFSPC